Corvallis, OR

1:28 PM PST on January 22, 2018 (GMT -0800)
Corvallis Municipal

Weather History for KCVO - February, 2013

Change the Weather History Date:

Thursday, February 28, 2013

  Actual Average Record
Temperature  
Mean Temperature 52 °F -  
Max Temperature 57 °F 51 °F 64 °F (2008)
Min Temperature 46 °F 35 °F 26 °F (2001)
Degree Days  
Heating Degree Days 14    
Growing Degree Days 2 (Base 50)    
Moisture  
Dew Point 48 °F    
Average Humidity 88    
Maximum Humidity 94    
Minimum Humidity 77    
Precipitation  
Precipitation 0.00 in - - ()
Sea Level Pressure  
Sea Level Pressure 30.35 in    
Wind  
Wind Speed 11 mph (SSE)    
Max Wind Speed 16 mph    
Max Gust Speed 23 mph    
Visibility 10 miles    
Events      
Averages and records for this station are not official NWS values.
T = Trace of Precipitation, MM = Missing Value Source: NWS Daily Summary

Daily Weather History Graph

Daily Weather History Graph

Search for Another Location

Airport or City:

Trip Planner

Search our weather history database for the weather conditions in past years. The results will help you decide how hot, cold, wet, or windy it might be!

Date:

Astronomy

Feb. 28, 2013 Rise Set
Actual Time 6:51 AM PST 6:00 PM PST
Civil Twilight 6:22 AM PST 6:29 PM PST
Nautical Twilight 5:48 AM PST 7:03 PM PST
Astronomical Twilight 5:15 AM PST 7:37 PM PST
Moon 9:44 PM PST (2/28) 7:55 AM PST (2/28)
Length of Visible Light 12h 07m
Length of Day
11h 08m
Waning Gibbous, 90% of the Moon is Illuminated
Feb 28
Waning Gibbous
Mar 4
Last Quarter
Mar 11
New
Mar 19
First Quarter
Mar 27
Full

Hourly Weather History & Observations

Time (PST) Temp. Windchill Dew Point Humidity Pressure Visibility Wind Dir Wind Speed Gust Speed Precip Events Conditions
12:55 AM 46.4 °F 41.5 °F 44.6 °F 93% 30.24 in 10.0 mi SSE 10.4 mph - N/A   Overcast
1:15 AM 46.4 °F 41.9 °F 44.6 °F 93% 30.23 in 10.0 mi SSE 9.2 mph - N/A   Overcast
1:55 AM 48.2 °F - 44.6 °F 87% 30.23 in 10.0 mi SSE 13.8 mph - N/A   Overcast
2:35 AM 48.2 °F - 46.4 °F 93% 30.23 in 10.0 mi SSE 15.0 mph - N/A   Overcast
2:55 AM 48.2 °F - 46.4 °F 93% 30.23 in 10.0 mi SSE 15.0 mph - N/A   Overcast
3:15 AM 48.2 °F - 46.4 °F 93% 30.24 in 10.0 mi SSE 11.5 mph - N/A   Overcast
3:35 AM 48.2 °F - 46.4 °F 93% 30.24 in 10.0 mi SSE 11.5 mph - N/A   Overcast
3:55 AM 48.2 °F - 46.4 °F 93% 30.24 in 10.0 mi SSE 13.8 mph - N/A   Overcast
4:15 AM 48.2 °F - 46.4 °F 93% 30.24 in 10.0 mi SSE 12.7 mph - N/A   Overcast
4:35 AM 48.2 °F - 46.4 °F 93% 30.24 in 10.0 mi SSE 12.7 mph - N/A   Overcast
4:55 AM 48.2 °F - 46.4 °F 93% 30.24 in 10.0 mi SSE 11.5 mph - N/A   Overcast
5:15 AM 48.2 °F - 46.4 °F 93% 30.24 in 10.0 mi SSE 11.5 mph - N/A   Overcast
5:35 AM 48.2 °F - 46.4 °F 93% 30.26 in 10.0 mi SSE 10.4 mph 16.1 mph N/A   Overcast
5:55 AM 50.0 °F - 46.4 °F 87% 30.26 in 10.0 mi SSE 15.0 mph - N/A   Overcast
6:15 AM 50.0 °F - 46.4 °F 87% 30.26 in 10.0 mi SSE 11.5 mph 23.0 mph N/A   Overcast
6:35 AM 50.0 °F - 46.4 °F 87% 30.27 in 10.0 mi SSE 16.1 mph - N/A   Overcast
6:55 AM 50.0 °F - 46.4 °F 87% 30.28 in 10.0 mi SSE 11.5 mph - N/A   Overcast
7:15 AM 51.8 °F - 48.2 °F 88% 30.28 in 10.0 mi SE 15.0 mph - N/A   Overcast
7:35 AM 50.0 °F - 48.2 °F 94% 30.29 in 10.0 mi SSE 13.8 mph - N/A   Overcast
7:55 AM 50.0 °F - 48.2 °F 94% 30.29 in 10.0 mi South 11.5 mph - N/A   Mostly Cloudy
8:15 AM 50.0 °F - 48.2 °F 94% 30.30 in 9.0 mi SSE 12.7 mph - N/A   Mostly Cloudy
8:35 AM 51.8 °F - 48.2 °F 88% 30.30 in 10.0 mi SSE 12.7 mph - N/A   Overcast
8:55 AM 51.8 °F - 48.2 °F 88% 30.30 in 10.0 mi SSE 10.4 mph - N/A   Overcast
9:15 AM 51.8 °F - 48.2 °F 88% 30.32 in 10.0 mi SSE 11.5 mph - N/A   Overcast
9:55 AM 51.8 °F - 48.2 °F 88% 30.32 in 10.0 mi SSE 11.5 mph - N/A   Mostly Cloudy
10:15 AM 53.6 °F - 50.0 °F 88% 30.33 in 10.0 mi South 9.2 mph - N/A   Mostly Cloudy
10:35 AM 53.6 °F - 50.0 °F 88% 30.34 in 10.0 mi South 9.2 mph - N/A   Overcast
10:55 AM 53.6 °F - 50.0 °F 88% 30.35 in 10.0 mi SSE 9.2 mph - N/A   Overcast
11:15 AM 53.6 °F - 51.8 °F 94% 30.34 in 10.0 mi South 10.4 mph - N/A   Mostly Cloudy
11:35 AM 55.4 °F - 51.8 °F 88% 30.35 in 10.0 mi SSE 8.1 mph - N/A   Overcast
11:55 AM 55.4 °F - 51.8 °F 88% 30.35 in 10.0 mi SSE 10.4 mph - N/A   Mostly Cloudy
12:15 PM 55.4 °F - 51.8 °F 88% 30.36 in 10.0 mi SE 10.4 mph - N/A   Overcast
2:15 PM 57.2 °F - 51.8 °F 82% 30.36 in 10.0 mi South 13.8 mph - N/A   Overcast
2:35 PM 57.2 °F - 53.6 °F 88% 30.37 in 10.0 mi South 10.4 mph - N/A   Overcast
2:55 PM 57.2 °F - 51.8 °F 82% 30.37 in 10.0 mi SSW 12.7 mph - N/A   Overcast
3:15 PM 57.2 °F - 50.0 °F 77% 30.38 in 10.0 mi SSW 12.7 mph - N/A   Overcast
3:35 PM 57.2 °F - 50.0 °F 77% 30.38 in 10.0 mi SSW 10.4 mph - N/A   Overcast
3:55 PM 55.4 °F - 50.0 °F 82% 30.39 in 10.0 mi SSW 10.4 mph - N/A   Overcast
4:15 PM 55.4 °F - 50.0 °F 82% 30.40 in 10.0 mi SSW 9.2 mph - N/A   Overcast
4:35 PM 55.4 °F - 50.0 °F 82% 30.40 in 10.0 mi SSW 11.5 mph - N/A   Overcast
4:55 PM 55.4 °F - 50.0 °F 82% 30.41 in 10.0 mi South 8.1 mph - N/A   Overcast
5:15 PM 55.4 °F - 50.0 °F 82% 30.41 in 10.0 mi South 9.2 mph - N/A   Overcast
5:35 PM 55.4 °F - 48.2 °F 77% 30.41 in 10.0 mi SSW 12.7 mph 17.3 mph N/A   Overcast
5:55 PM 53.6 °F - 48.2 °F 82% 30.41 in 10.0 mi SSW 8.1 mph - N/A   Overcast
6:15 PM 53.6 °F - 48.2 °F 82% 30.42 in 10.0 mi South 6.9 mph - N/A   Overcast
6:35 PM 53.6 °F - 48.2 °F 82% 30.42 in 10.0 mi South 6.9 mph - N/A   Overcast
6:55 PM 51.8 °F - 48.2 °F 88% 30.43 in 10.0 mi South 6.9 mph - N/A   Overcast
7:15 PM 51.8 °F - 48.2 °F 88% 30.43 in 10.0 mi South 6.9 mph - N/A   Overcast
7:35 PM 51.8 °F - 48.2 °F 88% 30.44 in 10.0 mi South 8.1 mph - N/A   Mostly Cloudy
7:55 PM 51.8 °F - 50.0 °F 94% 30.44 in 10.0 mi South 9.2 mph - N/A   Overcast
8:15 PM 51.8 °F - 50.0 °F 94% 30.45 in 10.0 mi South 6.9 mph - N/A   Overcast
8:55 PM 51.8 °F - 48.2 °F 88% 30.45 in 10.0 mi South 5.8 mph - N/A   Overcast
9:15 PM 51.8 °F - 50.0 °F 94% 30.45 in 10.0 mi South 5.8 mph - N/A   Overcast
9:35 PM 51.8 °F - 48.2 °F 88% 30.46 in 10.0 mi South 4.6 mph - N/A   Overcast
9:55 PM 50.0 °F - 48.2 °F 94% 30.47 in 10.0 mi South 5.8 mph - N/A   Mostly Cloudy
10:15 PM 50.0 °F - 48.2 °F 94% 30.47 in 10.0 mi SSE 5.8 mph - N/A   Overcast
10:35 PM 51.8 °F - 48.2 °F 88% 30.47 in 10.0 mi SSE 9.2 mph - N/A   Overcast
10:55 PM 51.8 °F - 48.2 °F 88% 30.48 in 10.0 mi ESE 4.6 mph - N/A   Overcast
11:15 PM 51.8 °F - 48.2 °F 88% 30.47 in 10.0 mi SE 6.9 mph - N/A   Overcast
11:35 PM 51.8 °F - 48.2 °F 88% 30.48 in 10.0 mi SE 5.8 mph - N/A   Overcast
11:55 PM 51.8 °F - 48.2 °F 88% 30.48 in 10.0 mi ESE 4.6 mph - N/A   Overcast